Location: Fort Worth, Tx
(32.7431°N, 97.3695°W)
Time: 11:17:19
(UTC-04:00)

A-11 Canister half - Pass Details

Date: 13 August 2024
Orbit: 1524 x 1684 km, 47.3° (Epoch: 13 September)

Event Time Altitude Azimuth Distance (km) Brightness Sun altitude
Rises 07:03:34 0° 307° (NW) 4,932 11.4 -10.3°
Reaches altitude 10° 07:06:47 10° 309° (NW) 3,933 10.9 -9.7°
Maximum altitude 07:16:54 74° 35° (NE) 1,696 9.4 -7.8°
Drops below altitude 10° 07:26:39 10° 120° (ESE) 3,810 11.7 -5.9°
Sets 07:29:43 0° 122° (ESE) 4,773 12.2 -5.3°
